This demonstration page uses our WeatherBlox Daily Observations layout. Learn more.

Left ArrowRight Arrow

Hourly Observations for August 25, 2015

Temp ( °F °C ) Dew Point ( °F °C ) Humidity (%) Winds ( mph kmh ) Pressure ( in mb ) Visibility ( mi km ) Precip ( " mm )
12:15 am 00:15 Clear 61 16 50 10 68 68 S 5 7 30.12 1020 10 16 0.00 0.00
12:35 am 00:35 Clear 59 15 50 10 72 72 Calm 30.12 1020 10 16 0.00 0.00
12:55 am 00:55 Clear 59 15 48 9 68 68 Calm 30.12 1020 10 16 0.00 0.00
1:15 am 01:15 Clear 61 16 48 9 63 63 Calm 30.12 1020 10 16 0.00 0.00
1:35 am 01:35 Clear 61 16 46 8 59 59 S 3 6 30.12 1020 10 16 0.00 0.00
1:55 am 01:55 Clear 61 16 46 8 59 59 S 3 6 30.12 1020 10 16 0.00 0.00
2:15 am 02:15 Clear 57 14 46 8 67 67 S 3 6 30.12 1020 10 16 0.00 0.00
2:35 am 02:35 Clear 57 14 46 8 67 67 S 3 6 30.12 1020 10 16 0.00 0.00
2:55 am 02:55 Clear 57 14 46 8 67 67 S 3 6 30.12 1020 10 16 0.00 0.00
3:15 am 03:15 Clear 55 13 45 7 67 67 Calm 30.15 1021 10 16 0.00 0.00
3:35 am 03:35 Clear 55 13 45 7 67 67 Calm 30.15 1021 10 16 0.00 0.00
3:55 am 03:55 Clear 52 11 45 7 77 77 Calm 30.15 1021 10 16 0.00 0.00
4:15 am 04:15 Clear 52 11 45 7 77 77 NE 5 7 30.15 1021 10 16 0.00 0.00
4:35 am 04:35 Clear 52 11 45 7 77 77 NE 6 9 30.15 1021 10 16 0.00 0.00
4:55 am 04:55 Clear 50 10 45 7 82 82 ENE 5 7 30.15 1021 10 16 0.00 0.00
5:15 am 05:15 Clear 52 11 45 7 77 77 ENE 3 6 30.15 1021 10 16 0.00 0.00
5:35 am 05:35 Clear 50 10 45 7 82 82 ENE 6 9 30.15 1021 10 16 0.00 0.00
5:55 am 05:55 Clear 50 10 45 7 82 82 ENE 5 7 30.15 1021 10 16 0.00 0.00
6:15 am 06:15 Clear 50 10 45 7 82 82 ENE 5 7 30.15 1021 10 16 0.00 0.00
6:35 am 06:35 Clear 50 10 45 7 82 82 ENE 3 6 30.18 1022 10 16 0.00 0.00
6:55 am 06:55 Clear 50 10 45 7 82 82 Calm 30.18 1022 10 16 0.00 0.00
7:15 am 07:15 Sunny 50 10 46 8 88 88 ENE 3 6 30.18 1022 10 16 0.00 0.00
7:35 am 07:35 Sunny 52 11 46 8 82 82 Calm 30.18 1022 10 16 0.00 0.00
7:55 am 07:55 Sunny 54 12 48 9 82 82 Calm 30.18 1022 10 16 0.00 0.00
8:15 am 08:15 Sunny 55 13 48 9 77 77 ESE 3 6 30.18 1022 10 16 0.00 0.00
8:35 am 08:35 Sunny 57 14 48 9 72 72 ESE 5 7 30.15 1021 10 16 0.00 0.00
8:55 am 08:55 Sunny 59 15 50 10 72 72 SE 7 11 30.18 1022 10 16 0.00 0.00
9:15 am 09:15 Sunny 61 16 50 10 68 68 SE 5 7 30.18 1022 10 16 0.00 0.00
9:35 am 09:35 Sunny 63 17 52 11 68 68 SE 7 11 30.18 1022 10 16 0.00 0.00
9:55 am 09:55 Sunny 64 18 52 11 64 64 SE 6 9 30.15 1021 10 16 0.00 0.00
10:15 am 10:15 Sunny 66 19 54 12 64 64 SE 6 9 30.15 1021 10 16 0.00 0.00
10:35 am 10:35 Sunny 68 20 54 12 60 60 SE 5 7 30.15 1021 10 16 0.00 0.00
10:55 am 10:55 Sunny 70 21 54 12 57 57 SE 6 9 30.15 1021 10 16 0.00 0.00
11:15 am 11:15 Sunny 70 21 55 13 60 60 SSE 5 7 30.15 1021 10 16 0.00 0.00
11:35 am 11:35 Sunny 72 22 55 13 57 57 Calm 30.09 1019 10 16 0.00 0.00
11:55 am 11:55 Sunny 73 23 57 14 57 57 SSE 3 6 30.09 1019 10 16 0.00 0.00
12:15 pm 12:15 Sunny 73 23 57 14 57 57 Calm 30.09 1019 10 16 0.00 0.00
12:35 pm 12:35 Sunny 75 24 57 14 54 54 S 6 9 30.09 1019 9 14 0.00 0.00
12:55 pm 12:55 Sunny 75 24 59 15 57 57 SSE 7 11 30.09 1019 10 16 0.00 0.00
1:15 pm 13:15 Sunny 77 25 61 16 57 57 SE 5 7 30.09 1019 10 16 0.00 0.00
1:35 pm 13:35 Sunny 79 26 61 16 54 54 S 6 9 30.06 1018 10 16 0.00 0.00
1:55 pm 13:55 Sunny 79 26 61 16 54 54 SSE 6 9 30.03 1017 10 16 0.00 0.00
2:15 pm 14:15 Sunny 81 27 61 16 51 51 SSE 8 13 30.03 1017 10 16 0.00 0.00
2:35 pm 14:35 Sunny 81 27 61 16 51 51 SSE 8 13 30.03 1017 10 16 0.00 0.00
2:55 pm 14:55 Sunny 81 27 61 16 51 51 S 7 11 30.03 1017 10 16 0.00 0.00
3:15 pm 15:15 Sunny 82 28 59 15 45 45 S 9 15 30.03 1017 10 16 0.00 0.00
3:35 pm 15:35 Sunny 82 28 61 16 48 48 SE 10 17 30.03 1017 10 16 0.00 0.00
3:55 pm 15:55 Sunny 82 28 59 15 45 45 S 7 11 30.03 1017 10 16 0.00 0.00
4:15 pm 16:15 Sunny 82 28 59 15 45 45 SSE 7 11 30.00 1016 10 16 0.00 0.00
4:35 pm 16:35 Sunny 82 28 59 15 45 45 SE 7 11 30.00 1016 10 16 0.00 0.00
4:55 pm 16:55 Sunny 82 28 59 15 45 45 SSE 7 11 30.00 1016 10 16 0.00 0.00
5:15 pm 17:15 Sunny 82 28 59 15 45 45 SSE 7 11 30.00 1016 10 16 0.00 0.00
5:35 pm 17:35 Sunny 82 28 57 14 42 42 SSE 7 11 30.00 1016 10 16 0.00 0.00
5:55 pm 17:55 Sunny 82 28 57 14 42 42 SE 8 13 30.00 1016 10 16 0.00 0.00
6:15 pm 18:15 Sunny 82 28 59 15 45 45 SE 7 11 30.00 1016 10 16 0.00 0.00
6:35 pm 18:35 Sunny 82 28 61 16 48 48 SE 7 11 30.00 1016 10 16 0.00 0.00
6:55 pm 18:55 Sunny 81 27 61 16 51 51 ESE 5 7 29.97 1015 10 16 0.00 0.00
7:15 pm 19:15 Sunny 79 26 63 17 58 58 E 6 9 29.97 1015 10 16 0.00 0.00
7:35 pm 19:35 Sunny 75 24 63 17 65 65 E 6 9 30.00 1016 10 16 0.00 0.00
7:55 pm 19:55 Sunny 73 23 63 17 69 69 E 6 9 30.00 1016 10 16 0.00 0.00
8:15 pm 20:15 Sunny 72 22 63 17 73 73 E 6 9 30.00 1016 10 16 0.00 0.00
8:35 pm 20:35 Clear 70 21 61 16 73 73 E 7 11 30.03 1017 10 16 0.00 0.00
8:55 pm 20:55 Clear 66 19 61 16 83 83 E 6 9 30.06 1018 10 16 0.00 0.00
9:15 pm 21:15 Clear 66 19 61 16 83 83 E 8 13 30.06 1018 10 16 0.00 0.00
9:35 pm 21:35 Clear 64 18 59 15 83 83 E 6 9 30.06 1018 10 16 0.00 0.00
9:55 pm 21:55 Clear 64 18 59 15 83 83 E 8 13 30.06 1018 10 16 0.00 0.00
10:15 pm 22:15 Clear 64 18 59 15 83 83 E 6 9 30.09 1019 10 16 0.00 0.00
10:35 pm 22:35 Clear 63 17 57 14 83 83 ESE 6 9 30.09 1019 10 16 0.00 0.00
10:55 pm 22:55 Clear 64 18 57 14 78 78 ESE 6 9 30.09 1019 10 16 0.00 0.00
11:15 pm 23:15 Clear 63 17 55 13 77 77 ESE 7 11 30.09 1019 10 16 0.00 0.00
11:35 pm 23:35 Clear 63 17 55 13 77 77 Calm 30.09 1019 5 8 0.00 0.00
11:55 pm 23:55 Clear 61 16 55 13 83 83 E 5 7 30.12 1020 10 16 0.00 0.00

Powered by AerisWeather